Orbital Elements at Epoch 2459200.5 (2020-Dec-17.0) TDB
Reference: JPL 25 (heliocentric ecliptic J2000)
Element | Value | Uncertainty (1-sigma) | Units |
e | .06178689645633448 | 6.0608e-08 | |
a | 2.584003496694978 | 1.0685e-08 | au |
q | 2.424345940201879 | 1.6191e-07 | au |
i | 5.412636989051191 | 3.9962e-06 | deg |
node | 43.36919537019352 | 3.8809e-05 | deg |
peri | 152.4331141892311 | 5.3082e-05 | deg |
M | 277.5466468900724 | 4.0211e-05 | deg |
tp | 2459547.991265997108 (2021-Nov-29.49126600) | 0.00017056 | TDB |
period | 1517.183365389378 4.15 | 9.4107e-06 2.577e-08 | d yr |
n | .2372818000859162 | 1.4718e-09 | deg/d |
Q | 2.743661053188076 | 1.1345e-08 | au |
|
| | Orbit Determination Parameters
Additional Information
|